Wind_Speed
12 5 2 5 9 12 14 18 18 17 19 21 24 26 28 30 31 33 34 36 36 38 39 40 41 42 43 44 44 44 44 45 52 54 53 55 56 58 58 58 59 60 60
6 4 4 9 12 15 16 18 19 21 23 25 27 29 31 32 33 34 36 37 38 39 40 41 42 42 43 43 44 45 45 46 50 57 57 58 59 60 61 62 63 64 65
1 4 8 13 16 18 19 20 22 24 26 28 30 31 32 34 35 36 37 38 39 40 41 41 42 42 42 42 42 44 46 49 52 57 60 61 62 64 65 65 66 66 67
5 7 11 16 19 21 22 23 25 26 28 30 31 33 34 35 37 38 38 38 38 39 39 40 40 41 42 44 45 47 50 52 55 58 61 63 64 67 67 70 69 70 72
9 12 16 21 23 24 25 25 27 29 31 33 34 36 37 38 38 38 38 39 38 38 38 38 39 40 43 46 48 50 53 56 59 62 64 66 68 70 71 72 74 75 74
13 17 22 25 26 27 27 29 31 32 34 35 36 37 38 38 39 39 39 38 37 38 38 39 40 43 45 47 49 51 54 57 60 63 66 68 69 70 72 73 75 77 80
18 22 26 27 27 28 30 32 32 34 36 38 38 39 39 39 38 38 37 37 37 38 39 41 43 46 48 50 52 52 54 55 58 62 66 67 70 68 68 67 66 67 68
22 26 28 29 29 30 32 32 34 36 38 39 39 38 38 38 38 39 37 38 38 39 41 43 46 48 50 52 54 55 56 57 60 63 65 65 62 61 61 62 62 62 61
26 29 30 30 32 33 33 34 37 39 40 39 39 38 38 38 39 39 39 40 41 41 42 44 46 49 50 52 56 57 59 60 61 62 61 59 57 58 57 57 55 56 56
29 31 32 33 33 33 34 37 39 41 40 39 39 38 38 37 38 40 42 43 43 43 43 45 46 49 51 53 56 59 61 63 63 62 60 57 55 55 52 49 50 52 51
32 33 34 34 34 35 37 40 42 42 41 39 39 39 39 38 39 40 42 44 46 46 46 47 48 50 52 53 55 58 61 63 63 62 61 58 55 53 51 47 46 47 49
33 35 34 34 35 37 40 42 41 40 40 39 39 38 38 39 41 42 43 44 45 47 49 50 51 53 54 55 57 58 61 61 61 60 60 58 55 51 47 45 44 43 43
34 33 34 35 37 40 42 41 40 40 39 39 38 37 38 40 41 42 43 44 45 48 50 51 52 54 55 56 56 58 60 60 60 58 57 55 52 49 45 44 41 40 38
33 34 35 37 40 40 39 39 39 39 39 39 40 40 40 40 41 42 44 45 47 49 51 52 53 54 55 57 58 58 60 59 57 56 54 51 49 46 42 41 40 39 38
34 35 37 38 38 38 39 39 39 40 40 40 41 41 42 42 43 45 47 50 52 53 55 56 57 58 59 59 59 60 59 57 54 53 52 49 46 44 40 38 37 36 37
34 35 36 36 38 39 39 40 40 39 40 40 41 43 44 45 46 47 49 51 52 55 56 58 59 60 60 61 60 60 57 54 53 52 51 48 45 42 40 36 34 34 34
34 34 36 37 39 40 40 39 38 39 39 39 41 43 45 46 47 48 51 53 54 56 57 58 59 60 60 60 60 58 55 53 53 51 49 45 43 41 38 36 34 32 31
35 36 37 38 40 41 40 40 39 39 38 39 42 44 45 46 48 50 53 54 54 55 57 58 59 59 60 59 57 54 53 53 52 50 47 43 39 39 36 34 32 31 30
36 37 39 41 42 42 42 41 41 41 41 41 41 43 46 47 49 51 53 55 56 56 57 58 58 58 58 56 54 54 56 56 53 50 46 42 37 36 34 32 30 28 28
38 39 41 43 44 44 44 43 43 44 44 45 46 47 48 49 49 50 52 53 54 56 57 57 58 58 56 53 54 56 57 56 53 48 43 39 35 32 33 30 28 27 25
39 41 45 46 45 46 46 46 46 46 47 48 49 50 51 52 53 53 53 53 55 55 56 57 58 55 53 53 55 56 55 51 47 44 39 35 32 29 28 27 27 25 24
42 45 45 46 47 47 48 48 48 48 49 50 50 49 50 51 51 52 52 53 53 54 55 56 54 51 51 53 54 51 48 45 42 39 36 32 29 26 25 24 24 23 21
46 46 46 46 47 49 50 49 50 50 50 51 51 50 50 49 50 50 51 52 52 53 54 52 50 49 50 50 47 44 42 39 38 36 34 30 27 23 22 22 22 21 19
45 46 46 47 49 50 50 50 51 51 51 50 49 49 49 49 49 50 50 50 52 52 50 47 46 47 47 45 41 38 36 34 33 32 32 30 26 22 21 20 21 19 20
45 46 47 49 50 51 51 50 50 50 49 49 48 48 48 48 48 49 49 50 50 48 44 42 43 43 42 39 36 33 30 28 27 28 29 28 25 21 20 20 20 19 19
45 47 48 49 50 51 50 50 50 49 48 48 47 47 47 47 48 48 50 50 47 42 38 38 38 38 36 35 32 29 24 18 21 27 31 30 25 20 20 20 18 18 18
Wind_Direction
279 253 315 313 342 336 307 293 296 302 304 306 307 307 306 306 306 305 306 305 307 308 307 308 308 308 307 306 307 308 308 308 306 305 307 308 308 307 307 305 303 300 298
55 38 344 327 303 295 298 302 307 308 308 309 308 307 307 308 308 309 308 308 308 307 307 306 307 308 309 311 312 313 314 315 314 311 313 312 311 310 309 306 305 302 299
250 299 313 305 303 307 308 309 311 310 310 309 310 311 311 311 309 308 307 308 308 308 309 311 312 314 314 315 318 318 318 317 315 314 312 314 314 313 310 306 303 300 298
274 294 306 315 314 312 312 310 310 309 309 312 312 312 311 311 311 310 309 308 310 312 314 316 317 318 320 320 320 319 318 317 316 315 314 314 314 313 310 307 304 303 300
296 313 320 318 315 313 310 308 308 310 313 313 316 316 313 311 309 308 309 311 314 316 317 318 320 321 322 320 320 320 319 318 317 316 315 314 313 312 310 307 304 301 298
308 314 316 316 314 310 309 309 313 315 316 318 315 312 310 310 310 312 313 315 315 317 319 321 320 320 320 319 318 318 318 318 316 315 314 314 312 311 309 309 307 304 299
306 309 312 313 309 307 309 312 315 314 315 315 314 312 311 312 313 314 315 315 317 319 319 319 320 320 319 318 318 319 318 317 315 315 315 316 314 314 312 308 305 303 302
301 305 309 307 305 308 311 313 311 313 315 315 314 314 314 314 315 315 315 315 316 318 319 318 318 318 319 319 318 317 316 317 319 319 318 317 316 314 313 311 309 306 303
300 304 305 305 308 309 309 309 312 315 315 315 316 315 314 315 316 314 313 315 315 315 316 316 317 317 318 318 316 317 318 320 320 318 316 315 316 316 314 310 308 307 307
300 302 304 306 306 307 310 312 314 315 315 317 315 314 314 315 314 314 313 314 313 312 315 316 316 315 317 318 319 321 321 320 318 316 314 315 317 317 314 313 314 313 314
298 300 302 304 308 309 310 312 315 315 315 315 314 315 315 313 310 311 311 311 311 313 316 316 316 318 319 322 323 323 322 320 319 318 318 317 318 319 317 317 317 317 315
297 299 302 306 308 309 311 312 313 313 313 314 315 315 312 310 310 310 310 310 312 314 315 318 319 321 322 323 323 322 321 319 318 318 317 319 321 322 319 317 317 316 316
297 299 303 306 308 309 311 313 312 313 314 315 313 311 310 309 308 308 308 310 312 313 315 318 318 319 322 322 320 320 319 318 318 318 318 320 322 321 320 317 316 316 316
298 301 304 306 307 310 312 314 315 315 315 313 311 310 309 307 306 307 309 311 312 313 313 315 319 321 321 320 319 320 320 319 319 319 319 320 320 320 319 319 318 320 320
299 301 303 306 310 313 316 317 316 315 313 311 309 309 308 308 309 311 313 315 316 316 317 319 320 321 321 321 321 321 320 320 320 320 319 319 319 319 319 320 317 320 325
299 301 305 310 315 318 318 317 316 313 311 310 309 310 310 311 312 312 313 313 314 315 317 319 320 320 320 320 320 320 320 320 321 320 319 318 318 320 319 320 316 317 323
300 306 311 315 318 320 319 317 314 313 312 310 308 308 308 309 310 310 311 312 314 315 317 317 318 319 320 319 319 319 319 320 321 320 318 317 316 318 318 317 316 314 317
304 308 312 316 319 320 320 319 317 314 312 309 308 307 306 307 308 309 309 310 312 313 314 316 318 318 318 319 319 318 318 319 318 317 315 315 314 314 316 315 315 313 315
304 309 312 315 319 320 319 318 316 314 312 310 308 306 306 306 306 307 308 310 311 313 315 316 316 318 319 319 318 318 318 317 316 314 313 313 312 310 313 313 313 311 311
305 307 311 316 317 317 317 316 314 313 311 310 308 306 305 304 304 305 307 310 312 315 316 317 319 320 319 318 318 317 316 315 313 311 310 311 310 309 311 313 312 312 309
304 308 313 314 313 314 314 315 313 311 310 309 308 308 307 308 309 310 312 314 316 317 317 319 320 320 318 318 318 318 317 315 314 313 312 311 310 308 309 311 311 311 310
305 310 311 310 310 312 313 312 311 310 309 309 308 308 307 308 309 311 313 315 316 318 319 321 320 319 320 320 320 320 319 318 317 317 316 315 313 308 310 311 310 311 311
308 308 308 308 309 310 310 310 310 310 308 308 308 308 308 309 310 313 314 316 317 319 321 321 320 320 321 322 322 322 322 322 321 321 320 319 317 311 310 311 313 312 313
306 306 306 307 308 308 309 309 308 307 307 308 309 309 309 311 313 314 315 317 319 321 321 320 320 321 323 325 327 327 326 326 327 329 329 327 324 315 314 314 315 318 317
304 305 305 306 306 307 307 307 308 308 309 309 309 310 312 313 313 315 317 319 321 321 321 321 322 325 327 330 333 333 334 336 341 341 336 330 325 319 317 315 317 320 318
304 304 305 305 306 306 308 309 309 309 309 310 310 311 312 314 316 317 318 320 320 319 319 322 326 328 334 335 335 337 337 350 352 347 347 340 332 325 322 319 318 319 320
Height
3126 3127 3129 3130 3129 3128 3127 3127 3125 3122 3119 3117 3115 3113 3110 3106 3103 3100 3096 3092 3087 3083 3078 3074 3069 3063 3060 3054 3048 3043 3038 3035 3027 3025 3017 3010 3003 2997 2991 2986 2980 2975 2969
3124 3126 3127 3127 3126 3125 3124 3122 3119 3117 3115 3112 3109 3106 3103 3100 3095 3091 3087 3085 3079 3075 3070 3066 3061 3054 3049 3043 3037 3031 3026 3021 3016 3006 3002 2994 2986 2981 2975 2967 2961 2956 2950
3124 3124 3125 3125 3124 3122 3119 3117 3113 3111 3108 3106 3103 3100 3096 3092 3088 3083 3079 3074 3070 3066 3061 3054 3048 3041 3038 3032 3025 3021 3015 3008 3003 2996 2988 2981 2973 2966 2958 2954 2946 2939 2932
3121 3121 3120 3119 3118 3116 3113 3111 3109 3106 3103 3100 3095 3093 3089 3083 3079 3076 3071 3065 3061 3056 3051 3045 3038 3031 3024 3020 3013 3008 3002 2995 2989 2982 2974 2965 2958 2950 2942 2932 2925 2919 2909
3118 3116 3115 3113 3113 3110 3108 3106 3104 3099 3096 3092 3088 3083 3081 3076 3071 3067 3062 3056 3050 3046 3041 3035 3029 3023 3015 3010 3003 2997 2990 2984 2975 2967 2959 2951 2944 2933 2924 2916 2906 2896 2893
3112 3112 3111 3107 3107 3105 3103 3100 3096 3091 3089 3084 3080 3076 3073 3068 3061 3057 3052 3046 3041 3035 3031 3026 3020 3012 3007 3001 2995 2988 2981 2970 2964 2956 2947 2937 2929 2919 2909 2899 2887 2876 2864
3109 3109 3106 3102 3101 3099 3095 3092 3089 3086 3082 3077 3073 3068 3062 3057 3053 3049 3044 3038 3032 3027 3021 3015 3009 3002 2996 2990 2984 2977 2971 2965 2955 2945 2935 2925 2914 2904 2895 2886 2878 2867 2854
3105 3102 3099 3096 3095 3092 3088 3084 3081 3077 3072 3069 3065 3061 3055 3047 3041 3039 3036 3030 3024 3018 3012 3006 2999 2992 2986 2978 2971 2966 2961 2953 2943 2931 2920 2911 2902 2893 2882 2870 2859 2848 2841
3098 3095 3093 3091 3088 3085 3081 3076 3073 3068 3064 3059 3055 3052 3045 3039 3032 3030 3026 3021 3015 3010 3005 2998 2991 2983 2976 2968 2961 2953 2946 2938 2931 2922 2913 2903 2892 2880 2869 2856 2849 2836 2826
3092 3090 3087 3083 3080 3076 3073 3070 3062 3061 3056 3049 3046 3042 3037 3031 3025 3022 3016 3010 3005 3002 2996 2989 2982 2974 2967 2958 2947 2938 2930 2923 2916 2909 2903 2893 2881 2870 2859 2847 2835 2824 2816
3086 3084 3080 3076 3071 3069 3065 3060 3054 3050 3046 3042 3038 3033 3027 3023 3019 3014 3008 3001 2994 2989 2983 2978 2972 2963 2955 2946 2936 2926 2917 2909 2902 2892 2883 2876 2868 2857 2845 2836 2827 2816 2806
3079 3077 3073 3068 3064 3060 3056 3051 3047 3042 3038 3034 3029 3024 3019 3014 3009 3004 2998 2992 2985 2978 2972 2966 2958 2950 2942 2934 2925 2916 2906 2896 2887 2878 2869 2860 2851 2844 2835 2826 2818 2811 2802
3072 3068 3064 3060 3056 3052 3048 3043 3038 3034 3029 3024 3020 3016 3012 3006 3000 2994 2988 2982 2976 2969 2963 2956 2948 2941 2933 2925 2917 2907 2896 2884 2873 2864 2855 2847 2839 2832 2824 2816 2810 2802 2795
3063 3060 3056 3052 3048 3044 3039 3034 3029 3024 3019 3014 3010 3005 3001 2996 2990 2984 2977 2972 2966 2959 2952 2946 2938 2930 2922 2914 2904 2895 2883 2872 2861 2851 2844 2837 2829 2822 2815 2806 2797 2791 2783
3056 3052 3048 3044 3039 3035 3030 3025 3020 3014 3010 3005 3000 2994 2989 2985 2979 2971 2964 2957 2951 2944 2937 2930 2923 2915 2907 2898 2889 2880 2870 2860 2851 2841 2833 2826 2820 2812 2806 2798 2790 2783 2776
3047 3044 3039 3035 3030 3025 3021 3016 3011 3006 3001 2994 2988 2982 2977 2970 2965 2960 2953 2947 2941 2932 2925 2917 2910 2901 2893 2884 2875 2867 2858 2848 2840 2832 2823 2816 2809 2802 2794 2790 2784 2777 2770
3039 3035 3030 3026 3022 3017 3012 3008 3004 2996 2991 2985 2979 2973 2967 2962 2956 2950 2943 2936 2930 2922 2914 2907 2898 2890 2881 2872 2862 2853 2845 2838 2829 2821 2813 2806 2799 2792 2787 2781 2775 2770 2765
3030 3026 3022 3018 3014 3009 3003 2998 2992 2987 2983 2978 2970 2963 2957 2952 2946 2939 2932 2926 2920 2914 2905 2896 2887 2879 2869 2859 2850 2841 2834 2826 2819 2811 2804 2796 2789 2782 2777 2773 2768 2762 2758
3022 3018 3013 3009 3004 2999 2993 2987 2982 2976 2971 2967 2962 2955 2947 2942 2936 2930 2923 2915 2907 2901 2893 2885 2876 2867 2857 2847 2838 2830 2821 2814 2806 2799 2792 2786 2780 2774 2770 2765 2760 2756 2751
3013 3009 3005 3000 2994 2988 2982 2977 2971 2966 2960 2955 2950 2943 2937 2932 2928 2922 2914 2905 2896 2888 2880 2871 2862 2853 2843 2834 2826 2818 2810 2801 2794 2787 2782 2776 2771 2766 2761 2757 2752 2748 2745
3005 3000 2995 2990 2984 2978 2972 2966 2960 2954 2948 2943 2937 2931 2924 2917 2911 2905 2898 2891 2882 2874 2866 2857 2848 2839 2831 2823 2814 2806 2797 2789 2781 2775 2770 2766 2762 2758 2754 2750 2746 2742 2738
2995 2990 2985 2979 2972 2966 2961 2955 2949 2943 2937 2931 2925 2919 2912 2905 2899 2892 2885 2878 2870 2862 2853 2844 2836 2827 2819 2811 2802 2793 2785 2777 2771 2765 2761 2758 2754 2751 2747 2744 2740 2737 2734
2984 2979 2973 2968 2962 2956 2950 2943 2937 2931 2925 2919 2912 2906 2900 2893 2886 2879 2872 2865 2857 2850 2841 2832 2824 2817 2809 2800 2791 2783 2775 2769 2763 2758 2753 2750 2747 2744 2741 2738 2735 2732 2729
2973 2968 2962 2957 2951 2944 2938 2932 2925 2919 2912 2906 2900 2893 2886 2880 2874 2867 2860 2853 2846 2838 2829 2822 2814 2806 2798 2790 2783 2775 2769 2763 2757 2752 2747 2743 2741 2738 2736 2733 2730 2727 2724
2962 2957 2951 2945 2939 2933 2926 2920 2913 2907 2900 2894 2887 2881 2874 2868 2862 2855 2848 2841 2833 2826 2819 2813 2806 2798 2790 2783 2776 2769 2764 2759 2755 2750 2745 2741 2737 2734 2731 2728 2726 2723 2721
2951 2946 2940 2933 2927 2920 2914 2907 2901 2894 2888 2882 2876 2869 2863 2857 2850 2843 2836 2829 2822 2816 2811 2805 2798 2790 2783 2776 2771 2765 2760 2756 2752 2747 2741 2736 2732 2729 2727 2724 2722 2719 2717